Content
SEND FEEDBACK

Daily
Averages
Monthly
Summary
United States of America

GORDON, WISCONSIN


Home > North America > United States > Wisconsin
Elevation: 1066 feet     Latitude: 46 15N     Longitude: 091 48W

WEATHER
 
SELECT A DAY
Number of Records: 212,788;   Date Range: 7/1/96 - 12/19/14
 
SHARE

PRINT THIS DATA

[ ← Previous Day ]
WEATHER ALMANAC - JANUARY 23, 2013
[ Next Day → ]
[ °C ]   °F
Weather ElementAverageHighLow
Temperature-0.4 °F10 °F (11:53 am)-15 °F (1:53 am)
Dewpoint-8.4 °F1 °F (12:53 pm)-20.9 °F (1:53 am)
Humidity69.9 %85 % (9:44 am)50 % (3:53 pm)
Barometer30.20 in30.64 in (11:53 pm)30.05 in (12:07 pm)
Wind Speed3.9 mph10.4 mph (1:44 pm)
Wind Gust23 mph (2:48 pm)
Weather ElementAverage
Visibility5.4 mi
Wind DirectionENE (82.1 °)

Weather ElementTotal
Precipitation---
Heating Degree Days67.5 (Base 65)
Averaged from 53 records on January 23, 2013
WEATHER CONDITIONS BREAKOUT
WIND DIRECTION BREAKOUT
WEATHER BY HOUR - JANUARY 23, 2013
[ °C ]   °F
Local TimeTemperatureDewpointHumidityBarometerVisibilityWind DirectionWind SpeedGust SpeedPrecipitationEventsConditions
1:53 AM-15.0 °F-20.9 °F75 %30.27 in10.0 miCalmOvercast
2:53 AM-13.0 °F-18.9 °F75 %30.27 in10.0 miCalmOvercast
3:53 AM-11.9 °F-18.0 °F74 %30.25 in10.0 miCalmOvercast
4:53 AM-11.0 °F-17.0 °F75 %30.24 in7.0 miCalmOvercast
5:53 AM-11.0 °F-17.0 °F75 %30.23 in5.0 miCalm0.00 inSnowLight Snow
6:15 AM-9.4 °F-16.6 °F71 %30.09 in2.5 miCalm0.00 inHaze
6:25 AM-9.4 °F-16.6 °F71 %30.09 in5.0 miCalm0.00 inHaze
6:53 AM-9.9 °F-16.1 °F74 %30.21 in5.0 miCalm0.00 inHaze
7:53 AM-8.0 °F-13.0 °F79 %30.20 in3.0 miCalmHaze
8:13 AM-5.8 °F-11.2 °F77 %30.07 in2.0 miCalm0.00 inSnowLight Snow
8:24 AM-5.8 °F-11.2 °F77 %30.07 in1.5 miCalm0.00 inSnowLight Snow
8:35 AM-4.0 °F-9.4 °F78 %30.07 in1.2 miCalm0.00 inSnowLight Snow
8:53 AM-2.9 °F-8.0 °F79 %30.19 in1.5 miCalm0.00 inSnowLight Snow
8:59 AM-2.2 °F-7.6 °F78 %30.07 in2.0 miCalm0.00 inSnowLight Snow
9:03 AM-0.4 °F-5.8 °F78 %30.07 in3.0 miCalm0.00 inHaze
9:13 AM-0.4 °F-5.8 °F78 %30.07 in1.8 miSW (230°)3.5 mph0.00 inSnowLight Snow
9:21 AM-0.4 °F-5.8 °F78 %30.08 in3.0 miSW (230°)3.5 mph0.00 inHaze
9:34 AM1.4 °F-4.0 °F78 %30.07 in1.8 miVariable3.5 mph0.00 inHaze
9:44 AM1.4 °F-2.2 °F85 %30.07 in1.0 miCalm0.00 inSnowLight Snow
9:53 AM3.0 °F-2.0 °F80 %30.18 in0.8 miCalm0.00 inSnowLight Snow
10:05 AM3.2 °F-2.2 °F78 %30.07 in1.0 miVariable4.6 mph0.00 inSnowLight Snow
10:14 AM3.2 °F-0.4 °F85 %30.07 in1.5 miWSW (250°)4.6 mph0.00 inHaze
10:29 AM5.0 °F-0.4 °F78 %30.07 in2.5 miVariable4.6 mph0.00 inHaze
10:37 AM5.0 °F-0.4 °F78 %30.07 in3.0 miVariable3.5 mph0.00 inHaze
10:53 AM7.0 °F0.0 °F73 %30.18 in4.0 miWest (270°)8.1 mph0.00 inHaze
11:32 AM8.6 °F-0.4 °F67 %30.06 in6.0 miWest (270°)6.9 mph0.00 inHaze
11:53 AM10.0 °F0.0 °F64 %30.17 in10.0 miWNW (290°)9.2 mph0.00 inOvercast
12:07 PM8.6 °F-2.2 °F62 %30.05 in10.0 miWNW (290°)8.1 mphOvercast
12:37 PM8.6 °F-0.4 °F67 %30.06 in1.8 miWNW (300°)8.1 mph17.3 mph0.00 inSnowLight Snow
12:50 PM8.6 °F-0.4 °F67 %30.06 in0.8 miVariable4.6 mph17.3 mph0.00 inSnowLight Snow
12:53 PM9.0 °F1.0 °F70 %30.17 in0.5 miVariable5.8 mph0.00 inSnowSnow
1:16 PM8.6 °F-0.4 °F67 %30.07 in1.2 miNW (310°)9.2 mph21.9 mph0.00 inSnowLight Snow
1:18 PM8.6 °F-0.4 °F67 %30.07 in3.0 miVariable6.9 mph21.9 mph0.00 inSnowLight Snow
1:35 PM8.6 °F-0.4 °F67 %30.07 in2.5 miVariable5.8 mph0.00 inSnowLight Snow
1:44 PM8.6 °F-4.0 °F57 %30.07 in4.0 miWNW (290°)10.4 mph19.6 mph0.00 inSnowLight Snow
1:53 PM8.1 °F-2.9 °F61 %30.19 in2.5 miVariable6.9 mph0.00 inSnowLight Snow
2:01 PM8.6 °F-0.4 °F67 %30.08 in1.5 miVariable6.9 mph0.00 inSnowLight Snow
2:36 PM6.8 °F-5.8 °F56 %30.12 in3.0 miNNW (330°)9.2 mph20.7 mph0.00 inSnowLight Snow
2:48 PM6.8 °F-7.6 °F52 %30.13 in10.0 miNW (320°)10.4 mph23.0 mph0.00 inMostly Cloudy
2:53 PM7.0 °F-8.0 °F51 %30.25 in10.0 miVariable5.8 mph23.0 mph0.00 inMostly Cloudy
3:53 PM3.0 °F-11.9 °F50 %30.33 in10.0 miVariable6.9 mph21.9 mph0.00 inOvercast
4:21 PM-0.4 °F-14.8 °F51 %30.25 in10.0 miNW (310°)8.1 mph19.6 mphMostly Cloudy
4:36 PM-0.4 °F-14.8 °F51 %30.27 in10.0 miNW (320°)8.1 mphOvercast
4:53 PM-0.9 °F-14.1 °F54 %30.41 in10.0 miVariable5.8 mphOvercast
5:36 PM-2.2 °F-14.8 °F55 %30.33 in10.0 miVariable5.8 mphMostly Cloudy
5:53 PM-2.9 °F-13.0 °F62 %30.46 in8.0 miVariable5.8 mphOvercast
6:42 PM-5.8 °F-13.0 °F71 %30.39 in10.0 miVariable5.8 mphScattered Clouds
6:53 PM-5.1 °F-13.0 °F69 %30.52 in10.0 miVariable5.8 mphPartly Cloudy
7:53 PM-6.0 °F-13.0 °F72 %30.54 in10.0 miNNW (340°)4.6 mphClear
8:53 PM-7.1 °F-13.0 °F75 %30.56 in10.0 miCalmClear
9:53 PM-7.1 °F-14.1 °F72 %30.57 in10.0 miCalmClear
10:53 PM-9.0 °F-15.0 °F75 %30.61 in10.0 miCalmClear
11:53 PM-13.0 °F-18.0 °F78 %30.64 in10.0 miCalmClear
Hourly data recorded from KHYR, located miles away from Gordon, Wisconsin







STORIES FROM OUR PARTNERS